Eilat, Israel

12:56 PM IDT on June 24, 2018 (GMT +0300)
Eilat

Weather History for LLET - September, 2017

Change the Weather History Date:

Thursday, September 14, 2017

  Actual Average Record
Temperature  
Mean Temperature 92 °F -  
Max Temperature 100 °F 93 °F 107 °F (2013)
Min Temperature 83 °F 73 °F 71 °F (2004)
Cooling Degree Days 26    
Growing Degree Days 42 (Base 50)    
Moisture  
Dew Point 62 °F    
Average Humidity 35    
Maximum Humidity 51    
Minimum Humidity 16    
Precipitation  
Precipitation 0.00 in -7.00 in - ()
Sea Level Pressure  
Sea Level Pressure 29.74 in    
Wind  
Wind Speed 10 mph ()    
Max Wind Speed 20 mph    
Max Gust Speed -    
Visibility 5.5 miles    
Events      
Averages and records for this station are not official NWS values.
T = Trace of Precipitation, MM = Missing Value Source: Averaged Metar Reports

Daily Weather History Graph

Daily Weather History Graph

Search for Another Location

Airport or City:

Astronomy

Sep. 14, 2017 Rise Set
Actual Time 6:24 AM IDT 6:46 PM IDT
Civil Twilight 6:00 AM IDT 7:10 PM IDT
Nautical Twilight 5:32 AM IDT 7:38 PM IDT
Astronomical Twilight 5:04 AM IDT 8:06 PM IDT
Moon 12:20 AM IDT (9/14) 2:23 PM IDT (9/14)
Length of Visible Light 13h 10m
Length of Day
12h 22m
Last Quarter, 38% of the Moon is Illuminated
Sep 14
Last Quarter
Sep 20
New
Sep 28
First Quarter
Oct 5
Full
Oct 12
Last Quarter

Hourly Weather History & Observations

Time (IDT) Temp. Heat Index Dew Point Humidity Pressure Visibility Wind Dir Wind Speed Gust Speed Precip Events Conditions
12:00 AM 92 °F - 61 °F 26% 29.81 in - NNW 6.9 mph - -  
3:00 AM 88 °F - 64 °F 34% 29.79 in - NNW 5.8 mph - -  
5:30 AM 84.2 °F 85.0 °F 62.6 °F 48% 29.80 in - North 6.9 mph - N/A   Clear
5:50 AM 84.2 °F 85.0 °F 62.6 °F 48% 29.80 in - North 10.4 mph - N/A   Clear
6:00 AM 85 °F - 62 °F 37% 29.80 in - NNE 3.5 mph - -  
6:50 AM 82.4 °F 83.4 °F 62.6 °F 51% 29.80 in - NNE 8.1 mph - N/A   Clear
7:50 AM 84.2 °F 85.6 °F 64.4 °F 51% 29.80 in - North 10.4 mph - N/A   Clear
8:50 AM 87.8 °F 88.5 °F 62.6 °F 43% 29.80 in - North 9.2 mph - N/A   Clear
9:00 AM 89 °F - 63 °F 32% 29.81 in 5 mi NNE 4.6 mph - -   Haze
9:50 AM 87.8 °F 89.4 °F 64.4 °F 46% 29.80 in - NNE 18.4 mph - N/A   Clear
10:50 AM 91.4 °F 92.1 °F 62.6 °F 38% 29.80 in - NE 16.1 mph - N/A   Clear
11:50 AM 93.2 °F 93.3 °F 60.8 °F 34% 29.77 in - NE 18.4 mph - N/A   Clear
12:00 PM 95 °F - 62 °F 24% 29.77 in 6 mi NE 8.1 mph - -  
12:50 PM 96.8 °F 97.1 °F 60.8 °F 30% 29.74 in - NNE 18.4 mph - N/A   Clear
1:50 PM 98.6 °F 98.5 °F 59.0 °F 27% 29.71 in - NNE 19.6 mph - N/A   Clear
2:50 PM 98.6 °F 98.5 °F 59.0 °F 27% 29.68 in - NNE 19.6 mph - N/A   Clear
3:00 PM 100 °F - 58 °F 16% 29.69 in - NNE 9.2 mph - -  
3:50 PM 100.4 °F 101.3 °F 60.8 °F 27% 29.65 in - NNE 18.4 mph - N/A   Clear
4:50 PM 100.4 °F 101.3 °F 60.8 °F 27% 29.65 in - NNE 18.4 mph - N/A   Clear
5:50 PM 100.4 °F 101.3 °F 60.8 °F 27% 29.62 in - NNE 19.6 mph - N/A   Clear
6:00 PM 99 °F - 60 °F 19% 29.65 in - NNE 6.9 mph - -  
6:50 PM 98.6 °F 99.4 °F 60.8 °F 29% 29.65 in - North 15.0 mph - N/A   Clear
7:30 PM 95.0 °F 98.5 °F 66.2 °F 39% 29.68 in - NW 13.8 mph - N/A   Clear
7:50 PM 93.2 °F 96.2 °F 66.2 °F 41% 29.68 in - NW 16.1 mph - N/A   Clear
8:50 PM 91.4 °F 94.0 °F 66.2 °F 43% 29.71 in - NW 15.0 mph - N/A   Clear
9:00 PM 90 °F - 67 °F 36% 29.73 in - NW 6.9 mph - -  
9:50 PM 89.6 °F 92.2 °F 66.2 °F 46% 29.74 in - NNW 8.1 mph - N/A   Clear